Weather History for San Antonio, TX

Change the Weather History Date:

Sunday, February 5, 2012

  Actual Average Record
Temperature  
Mean Temperature 48 °F 54 °F  
Max Temperature 53 °F 65 °F 85 °F (2008)
Min Temperature 43 °F 42 °F 20 °F (1912)
Degree Days  
Heating Degree Days 17 12  
Month to date heating degree days 22 60  
Since 1 July heating degree days 826 1078  
Cooling Degree Days 0 1  
Month to date cooling degree days 6 1  
Year to date cooling degree days 11 8  
Moisture  
Dew Point 38 °F    
Average Humidity 65    
Maximum Humidity 76    
Minimum Humidity 54    
Precipitation  
Precipitation 0.14 in 0.06 in 1.57 in (1961)
Month to date precipitation 2.45 0.31  
Year to date precipitation 6.44 2.07  
Snow  
Snow 0.00 in - - ()
Month to date snowfall 0.0  
Since 1 July snowfall T  
Snow Depth 0.00 in    
Sea Level Pressure  
Sea Level Pressure 30.28 in    
Wind  
Wind Speed 11 mph (North)    
Max Wind Speed 25 mph    
Max Gust Speed 32 mph    
Visibility 10 miles    
Events Rain , Thunderstorm    
T = Trace of Precipitation, MM = Missing Value Source: NWS Daily Summary

Daily Weather History Graph

Daily Weather History Graph

Search for Another Location

Airport:

Trip Planner

Search our weather history database for the weather conditions in past years. The results will help you decide how hot, cold, wet, or windy it might be!

Date:

Astronomy

Feb. 05, 2012 Rise Set
Actual Time 7:21 AM CST 6:14 PM CST
Civil Twilight 6:56 AM CST 6:39 PM CST
Nautical Twilight 6:28 AM CST 7:07 PM CST
Astronomical Twilight 6:00 AM CST 7:36 PM CST
Moon 4:20 PM CST (2/5) 5:26 AM CST (2/5)
Length of Visible Light 11h 43m
Length of Day
10h 53m
Waxing Gibbous, 95% of the Moon is Illuminated
Feb 5
Waxing Gibbous
Feb 7
Full
Feb 14
Last Quarter
Feb 21
New
Feb 29
First Quarter

Hourly Weather History & Observations

Time (CST) Temp. Windchill Dew Point Humidity Pressure Visibility Wind Dir Wind Speed Gust Speed Precip Events Conditions
12:53 AM 52.0 °F - 37.0 °F 57% 30.23 in 10.0 mi NNE 9.2 mph 18.4 mph N/A   Overcast
1:53 AM 51.1 °F - 36.0 °F 56% 30.20 in 10.0 mi NNE 18.4 mph 28.8 mph N/A   Overcast
2:53 AM 50.0 °F - 35.1 °F 57% 30.22 in 10.0 mi North 16.1 mph 24.2 mph N/A   Overcast
3:53 AM 48.9 °F - 35.1 °F 59% 30.24 in 10.0 mi North 10.4 mph - N/A   Overcast
4:53 AM 46.9 °F - 34.0 °F 61% 30.24 in 10.0 mi North 15.0 mph 24.2 mph 0.00 in Rain Light Rain
5:37 AM 42.8 °F 35.1 °F 39.2 °F 87% 30.28 in 5.0 mi NNE 16.1 mph 24.2 mph 0.10 in Rain , Thunderstorm Thunderstorms and Rain
5:53 AM 43.0 °F 36.0 °F 39.0 °F 86% 30.26 in 8.0 mi NNE 13.8 mph 19.6 mph 0.10 in Rain , Thunderstorm Light Thunderstorms and Rain
6:20 AM 44.6 °F 39.7 °F 39.2 °F 81% 30.29 in 10.0 mi NE 9.2 mph - 0.01 in   Overcast
6:53 AM 44.1 °F 40.1 °F 39.0 °F 82% 30.29 in 8.0 mi North 6.9 mph - 0.01 in Rain Light Rain
7:53 AM 44.1 °F 38.1 °F 37.0 °F 76% 30.31 in 10.0 mi NNE 11.5 mph 21.9 mph N/A   Overcast
8:53 AM 44.1 °F 38.6 °F 37.0 °F 76% 30.34 in 10.0 mi NNE 10.4 mph 17.3 mph N/A   Overcast
9:53 AM 45.0 °F 37.9 °F 37.0 °F 74% 30.34 in 10.0 mi North 16.1 mph 24.2 mph N/A   Overcast
10:53 AM 46.0 °F 40.6 °F 37.9 °F 73% 30.34 in 10.0 mi North 11.5 mph 20.7 mph 0.00 in   Overcast
11:53 AM 46.9 °F - 37.0 °F 68% 30.35 in 10.0 mi North 13.8 mph - N/A   Overcast
12:53 PM 46.9 °F - 37.0 °F 68% 30.32 in 10.0 mi North 13.8 mph - 0.00 in   Overcast
1:53 PM 48.0 °F - 37.9 °F 68% 30.30 in 10.0 mi North 13.8 mph - N/A   Overcast
2:53 PM 48.0 °F - 37.9 °F 68% 30.28 in 10.0 mi North 12.7 mph - N/A   Overcast
3:53 PM 48.0 °F - 42.1 °F 80% 30.27 in 8.0 mi NNW 10.4 mph - 0.03 in Rain Light Rain
4:53 PM 50.0 °F - 39.9 °F 68% 30.26 in 10.0 mi North 9.2 mph - 0.00 in   Mostly Cloudy
5:53 PM 48.9 °F - 39.0 °F 69% 30.25 in 10.0 mi NNE 9.2 mph - N/A   Overcast
6:53 PM 48.9 °F - 39.9 °F 71% 30.26 in 10.0 mi NNW 4.6 mph - N/A   Overcast
7:53 PM 48.9 °F - 39.0 °F 69% 30.27 in 10.0 mi Calm Calm - N/A   Overcast
8:53 PM 48.9 °F - 39.9 °F 71% 30.29 in 10.0 mi NNE 3.5 mph - N/A   Overcast
9:53 PM 46.9 °F - 37.9 °F 71% 30.31 in 10.0 mi NNE 6.9 mph - N/A   Overcast
10:53 PM 46.0 °F 41.9 °F 36.0 °F 68% 30.31 in 10.0 mi NNE 8.1 mph - N/A   Overcast
11:53 PM 45.0 °F 40.6 °F 36.0 °F 71% 30.31 in 10.0 mi NNE 8.1 mph - N/A   Overcast